Location: Eastlake (historical)
(39.0077°N, 122.6678°W)
Time: 17:30:53
(UTC+00:00)

AQUARIUS - Pass Details

Date: 25 November 2020
Orbit: 650 x 652 km, 98.0° (Epoch: 23 January)

Event Time Altitude Azimuth Distance (km) Brightness Sun altitude
Rises 14:31:39 0° 13° (NNE) 2,980 7.5 -6.8°
Reaches altitude 10° 14:33:53 10° 14° (NNE) 2,065 6.7 -6.4°
Maximum altitude 14:38:23 85° 101° (E) 659 4.3 -5.6°
Drops below altitude 10° 14:42:52 10° 192° (SSW) 2,049 6.9 -4.8°
Sets 14:45:04 0° 193° (SSW) 2,955 7.7 -4.4°
